Location: Lafig�re
(44.4503°N, 4.0357°E)
Time: 06:33:14
(UTC+00:00)

Vanguard 2 - Pass Details

Date: 26 January 2021
Orbit: 552 x 2938 km, 32.9° (Epoch: 01 March)

Event Time Altitude Azimuth Distance (km) Brightness Sun altitude
Rises 19:23:42 0° 251° (WSW) 2,892 11.6 -28.3°
Reaches altitude 10° 19:26:37 10° 227° (SW) 2,178 10.4 -28.8°
Maximum altitude 19:29:34 16° 191° (S) 2,056 9.8 -29.3°
Enters shadow 19:30:16 15° 182° (S) 2,135 9.8 -29.4°
